Regional Weather Roundup
Issued by NWS Portland, ME

Home | Current Version | Previous Version | Text Only | Print | Product List | Glossary On
Versions: 1 2 3 4 5 6 7 8 9 10 11 12 13 14 15 16 17 18 19 20 21 22 23 24 25 26 27 28 29 30 31 32 33 34 35 36 37 38 39 40 41 42 43 44 45 46 47 48 49 50
000
ASUS41 KGYX 272010
RWRGYX
WEATHER ROUNDUP FOR MAINE AND NEW HAMPSHIRE
NATIONAL WEATHER SERVICE GRAY ME
400 PM EDT TUE JUN 27 2017

MEZ002-005-006-010-012-015-018-020-021-024-026-027-029-272100-
MAINE

CITY           SKY/WX    TMP DP  RH WIND       PRES   REMARKS
PORTLAND       PTSUNNY   67  57  70 S14G22    29.91F
SANFORD        MOSUNNY   69  54  58 S7        29.91F
BAR HARBOR     PTSUNNY   69  55  60 SW14      29.96F
WISCASSET      MOSUNNY   71  58  63 SE7       29.94F
ROCKLAND       CLOUDY    63  59  87 S9        29.95F
FRYEBURG       LGT RAIN  62  56  80 VRB5      29.93S
LEWISTONAUBURN CLOUDY    71  53  52 W9        29.90F
AUGUSTA        LGT RAIN  69  54  58 S9G16     29.91F
WATERVILLE     MOSUNNY   72  55  55 VRB7      29.88F
BANGOR         CLOUDY    68  53  58 S15       29.93F
GREENVILLE       N/A     54  52  93 VRB3      29.91R
MILLINOCKET    PTSUNNY   71  52  50 VRB6      29.90F
HOULTON        PTSUNNY   72  52  49 S10G22    29.87F
PRESQUE ISLE   PTSUNNY   64  57  77 NE12      29.88
FRENCHVILLE    CLOUDY    64  44  48 CALM      29.90F
CARIBOU        MOSUNNY   68  52  56 E8        29.89F
$$

NHZ002-005-008-009-011-012-014-272100-
NEW HAMPSHIRE

CITY           SKY/WX    TMP DP  RH WIND       PRES   REMARKS
PORTSMOUTH     TSTM      64  58  81 S13       29.91S
ROCHESTER      CLOUDY    70  54  56 S12G20    29.90S
NASHUA         LGT RAIN  64  62  93 SE6       29.92S
MANCHESTER     TSTM      69  55  60 S16       29.88F
CONCORD        RAIN      62  59  90 E6        29.90F FOG
LACONIA        PTSUNNY  N/A N/A N/A NW3       29.92S
PLYMOUTH       LGT RAIN  67  55  64 CALM      29.90S
BERLIN         LGT RAIN  62  54  74 SE5       29.91S
WHITEFIELD     PTSUNNY   68  50  52 VRB6      29.89F
JAFFREY        CLOUDY    67  58  72 S10       29.91F
KEENE          MOSUNNY   68  55  63 S10       29.89F
LEBANON        CLOUDY    67  55  65 S8        29.88F
MT WASHINGTON  PTSUNNY   45  41  87 SW20G25     N/A
$$

VTZ005-007-008-272100-
VERMONT

CITY           SKY/WX    TMP DP  RH WIND       PRES   REMARKS
ST JOHNSBURY     N/A     69  52  54 MISG      29.86F
MONTPELIER     TSTM      60  56  86 NW6       29.94S
BURLINGTON     CLOUDY    62  57  83 NE6       29.89F
$$

MAZ007-012-024-CTZ003-RIZ002-NYZ038-NYZ072-272100-
SOUTHERN NEW ENGLAND AND NY

CITY           SKY/WX    TMP DP  RH WIND       PRES   REMARKS
BOSTON         PTSUNNY   75  54  47 S25G33    29.91F
WORCESTER      CLOUDY    62  56  80 SW3       29.93F THUNDER
NANTUCKET      MOSUNNY   67  63  87 SW9       30.00F
PROVIDENCE     MOSUNNY   75  54  47 S22G30    29.93F
HARTFORD       PTSUNNY   71  61  70 SW7       29.90F
ALBANY         CLOUDY    64  55  72 N3        29.90S
NEW YORK CITY  PTSUNNY   78  53  41 SW14G22   29.92S
$$

ANZ081-ANZ082-ANZ150-NHZ014-MEZ023>029-272100-
COASTAL MARINE OBSERVATIONS

STATION/POSITION TIME  TEMP    WIND        PRES    WAVE
                       AIR SEA DIR/SP/G            HT/PER
                 (UTC) (F)     (DEG/KT/KT) (MB)    (FT/S)
MATINICUS ROCK   1900   58     150/ 13/ 13 1014.5F
ISLE OF SHOALS   1900   65     160/ 12/ 13 1013.5F
JEFFREYS LEDGE   1906      57                N/A     2/ 5
CASHES LEDGE BUO 1850   66 62              1014.7    2/ 3
GEORGES BANK BUO 1850   61 60              1016.7    2/ 8
$$

.............KEY..............
   WCI - WIND CHILL
   TC  - TEMPERATURE IN CELSIUS
   VSB - VISIBILITY IN MILES
   HX  - HEAT INDEX
   FAIR- INDICATES FEW OR NO CLOUDS BELOW 12,000 FT, WITH NO
         SIGNIFICANT WEATHER AND/OR OBSTRUCTIONS TO VISIBILITY.





USA.gov is the U.S. government's official web portal to all federal, state and local government web resources and services.